Location: Balaclava NSW 2575, Australia
(34.4510°S, 150.4953°E)
Time: 01:30:51
(UTC+10:00)

A-11 Canister half - Pass Details

Date: 17 June 2021
Orbit: 1513 x 1687 km, 47.2° (Epoch: 28 July)

Event Time Altitude Azimuth Distance (km) Brightness Sun altitude
Rises 19:12:10 0° 264° (W) 4,724 12.7 -27.5°
Reaches altitude 10° 19:15:30 10° 256° (WSW) 3,765 11.8 -28.2°
Maximum altitude 19:24:22 40° 188° (S) 2,220 9.7 -30.0°
Enters shadow 19:26:55 35° 157° (SSE) 2,403 9.7 -30.5°
